Regional Weather Roundup
Issued by NWS

Current Version | Previous Version | Text Only | Print | Product List | Glossary On
Versions: 1 2 3 4 5 6 7 8 9 10 11 12 13 14 15 16 17 18 19 20 21 22 23 24 25 26 27
000
ASUS45 KREV 231910
RWRNV
NEVADA REGIONAL WEATHER ROUNDUP
NATIONAL WEATHER SERVICE RENO NV
1200 PM PDT MON APR 23 2018

NOTE: "FAIR" INDICATES FEW OR NO CLOUDS BELOW 12,000 FEET WITH NO
SIGNIFICANT WEATHER AND/OR OBSTRUCTIONS TO VISIBILITY.

NVZ001-003-004-232000-
WESTERN NEVADA

CITY           SKY/WX    TMP DP  RH WIND       PRES   REMARKS
RENO           MOSUNNY   66  22  18 VRB5G17   30.19F
CARSON CITY    FAIR      63  23  22 E13       30.21F
MINDEN         FAIR      63  28  27 NW6       30.21F
FALLON         PTSUNNY   64  27  24 CALM      30.19F
LOVELOCK       SUNNY     64  18  17 N5        30.20F
HAWTHORNE      SUNNY     63  21  20 NW14      30.18S
$$

NVZ002-CAZ072-073-232000-
NORTHERN AND CENTRAL SIERRA

CITY           SKY/WX    TMP DP  RH WIND       PRES   REMARKS
S. LAKE TAHOE  SUNNY     57  31  37 VRB7      30.21F
SQUAW VLY 8000   N/A     52  30  43 SE3         N/A
BLUE CANYON    SUNNY     63  24  22 S9        30.18S
MAMMOTH LAKES  FAIR      66  21  18 SE7       30.22F
BRIDGEPORT     FAIR      63  23  21 VRB5      30.18F
$$

NVZ030-031-036-232000-
NORTHERN NEVADA

CITY           SKY/WX    TMP DP  RH WIND       PRES   REMARKS
ELKO           MOSUNNY   59  22  24 SW12      30.21S
WINNEMUCCA     SUNNY     61  23  23 VRB6      30.23S
WENDOVER       MOSUNNY   64  22  20 SE12      30.16F
$$

NVZ035-037-232000-
CENTRAL NEVADA

CITY           SKY/WX    TMP DP  RH WIND       PRES   REMARKS
ELY            PTSUNNY   61  22  22 CALM      30.19F
EUREKA           N/A     57  26  30 S6        30.21F
$$

NVZ013-014-232000-
SOUTH CENTRAL NEVADA

CITY           SKY/WX    TMP DP  RH WIND       PRES   REMARKS
TONOPAH        SUNNY     70  24  17 VRB5      30.15F
$$

NVZ017-020-022-232000-
SOUTHERN NEVADA

CITY           SKY/WX    TMP DP  RH WIND       PRES   REMARKS
LAS VEGAS      MOSUNNY   86  24  10 CALM      29.97F
N. LAS VEGAS   SUNNY     85  21   9 CALM      29.97F
NELLIS AFB     NOT AVBL
HENDERSON      SUNNY     86  25  11 VRB3      30.00F
MERCURY        SUNNY     81  26  13 VRB5      30.02F
$$




USA.gov is the U.S. government's official web portal to all federal, state and local government web resources and services.